GPS BIIF-6 (PRN 06)

Last updated on Sat Apr 13 2024 01:03:04 GMT+0100 (British Summer Time)

1 39741U 14026A 24103.23046464 -.00000108 00000+0 00000+0 0 9994 2 39741 56.7106 2.4239 0032419 316.1819 43.5947 2.00573021 72572
UTC large
Height (km)
Speed (km/s)
/
Latitude / Longitude
Inclination (degrees)
Orbital Period (minutes)
Azimuth
Elevation
Range (km)
Doppler Factor

Next 0 passes for location: London (51.5072 / 0.1276)

Sorry there are no passes over London.